Погода в Бага-Буруле

Россия / Республика Калмыкия     45°59′51″N   44°35′57″E
темп.,
°C
ветер,
м/с
пор.,
м/с
влажн.,
%
обл.,
%
осадки,
мм/ч
давл.,
гПа
погр.,
м
13 апреля, вт
вт1300:00+11вюв3865100 0.0 1022195
03:00+9вюв337387 0.0 102236
06:00+10вюв3674100 0.0 1023179
09:00+15юв61163100 0.0 1023655
12:00+20вюв81142100 0.0 10221674
15:00+21юв71033100 0.0 10202551
18:00+17вюв8133888 0.0 1020461
21:00+14вюв5103990 0.0 1021263
14 апреля, ср
ср1400:00+11в334679 0.0 102037
03:00+11св344799 0.0 101863
06:00+11св3452100 0.0 1017103
09:00+14в4545100 0.0 1016408
12:00+17ююв5641100 0.0 1016864
15:00+19вюв3537100 0.1 10151155
18:00+16ю2256100 0.0 101554
21:00+13юв1261100 0.0 101625
15 апреля, чт
чт1500:00+12в336166 0.0 101546
03:00+10ю2270100 0.0 101520
06:00+11з2370100 0.0 101586
09:00+15ссз2250100 0.0 1015422
12:00+18сз4443100 0.0 10151460
15:00+19зсз5541100 0.0 10141787
18:00+15зсз686295 0.0 1015270
21:00+14зсз365894 0.0 1015157
16 апреля, пт
пт1600:00+12зсз45665 0.0 101586
03:00+11зсз46765 0.0 1015100
06:00+10зсз35786 0.0 101689
09:00+17сз455089 0.0 1016642
12:00+19зсз343711 0.0 10151463
15:00+21сз233319 0.0 10152071
18:00+19с224259 0.0 101426
21:00+15св2248100 0.0 101511
17 апреля, сб
сб1700:00+15зсз2248100 0.0 101611
03:00+13с4861100 0.0 1016130
06:00+12сз6988100 0.1 1018300
09:00+12зсз6790100 0.5 1019457
12:00+11з6886100 0.8 1021536
15:00+15зсз6755100 1.2 10201488
18:00+14зсз5956100 0.0 1020399
21:00+10сз47735 0.0 1021139